星链-33968 (STARLINK-33968)

导读

STARLINK-33968是美国SpaceX公司星链(Starlink)星座的一员,于2025年5月10日发射入轨。星链项目旨在通过近地轨道部署数万颗卫星,为全球提供高速低延迟的互联网接入服务,重点覆盖地面网络难以到达的偏远、海洋及航空区域。作为大规模星座的组成部分,该卫星将助力提升全球网络覆盖能力,但星链项目的快速扩张也引发了关于太空拥堵和天文观测干扰的广泛争议。

Basic Information
目录编号:
63883
目录名称:
STARLINK-33968
国际标识:
2025-094V
轨道中心:
EARTH
卫星名称:
星链-33968
卫星全名:
星链-33968 (STARLINK-33968)
卫星状态:
在轨 (已飞行400 天)
发射日期:
2025-05-10 UTC
国别 :
美国 (US)
星等 :
--
Orbit Information
数据来源 国际轨道数据 AOE轨道数据
星历时间 2026-06-14T04:32:51+0800
9小时前
查看轨道信息
2026-06-14T02:00:00+0800
11小时前
查看轨道信息
半长轴 6950.178km 6950.21km
偏心率 0.0002971 0.0002944
轨道倾角 70.002° 70.000°
近地点辐角 265.783° 262.196°
升交点赤经 352.160° 352.425°
平近点角 94.299° 245.498°
近地点 569.976km 570.026km
远地点 574.106km 574.12km
周期 96.107分钟 96.107分钟
每日圈数 14.98335 14.983247
Detailed Information
固有亮度:
5
最大亮度:
2.5
卫星平台:
Starlink V1.0
覆盖范围:
全球
运营商:
太空探索技术公司
运营商所在国:
美国
制造商(研发单位):
太空探索技术公司
制造商所在国:
美国
使用方式:
暂无
Satellite Introduction
Starlink 计划是 SpaceX 推出的全球卫星互联网项目,通过发射低轨道卫星,为全球尤其是偏远地区提供高速、低延迟的互联网服务。自 2019 年起,Starlink 已部署数千颗卫星,旨在缩小全球数字鸿沟,推动互联网普及。该项目还为军事、航空等行业提供通信支持,带来广泛经济效益。
2D Orbit Map
3D Orbit Map
Orbit Altitude Analysis Chart
Orbit Inclination Analysis Chart
Orbit Comprehensive Analysis Chart
View Comprehensive Chart